User: anonymous   Login
Location: Unspecified
(0.0000°N, 0.0000°E)
Time: 08:59:19
(UTC+00:00)
Language:

AUBIESAT-1 - Orbit

View from above orbital plane
View from above orbital plane
View from above satellite
View from above satellite

Ground track
Ground track

The orbit data is extracted from the following two-line orbital elements,

1 37854U 11061E   17054.94821806 +.00001860 +00000-0 +10757-3 0  9999
2 37854 101.7097 230.9405 0168888 050.0125 311.5776 15.03644077289465
Epoch (UTC): 23 February 2017 22:45:26
Eccentricity: 0.0168888
inclination: 101.7097°
perigee height: 438 km
apogee height: 673 km
right ascension of ascending node: 230.9405°
argument of perigee: 50.0125°
revolutions per day: 15.03644077
mean anomaly at epoch: 311.5776°
orbit number at epoch: 28946

The dashed part of the orbit path shows where the satellite is in the earth's shadow,  

DLR